Weather Roundup
Issued by NWS

Home | Current Version | Previous Version | Text Only | Print | Product List | Glossary On
Versions: 1 2 3 4 5 6 7 8 9 10 11 12 13 14 15 16 17 18 19 20 21 22 23 24 25 26 27 28 29 30 31 32 33 34 35 36 37 38 39 40 41 42 43 44 45 46 47 48 49 50
000
NZUS93 KARX 160410
HRRWXR

CURRENT HOURLY OBSERVATIONS ACROSS
MUCH OF THE UPPER MISSISSIPPI VALLEY
NATIONAL WEATHER SERVICE LA CROSSE WI
1100 PM CDT MON SEP 15 2014


...SOUTHEAST MINNESOTA...


CITY           SKY/WX    TMP DP  RH WIND       PRES   REMARKS
ROCHESTER      CLEAR     45  39  79 W6        30.23F
ROCHESTER/MAYO FAIR      48  42  80 CALM      30.24R
WINONA         CLEAR     46  45  93 CALM      30.23S
AUSTIN         CLEAR     43  41  93 CALM      30.24R
ALBERT LEA     CLEAR     43  43 100 CALM      30.24R
DODGE CENTER   PTCLDY    43  39  87 W5        30.23S
PRESTON        CLEAR     45  43  93 W5        30.24R
OWATONNA       CLEAR     41  39  93 CALM      30.23S
FARIBAULT      CLEAR     43  37  81 CALM      30.23S
$$

...ELSEWHERE IN MINNESOTA...


CITY           SKY/WX    TMP DP  RH WIND       PRES   REMARKS
MINNEAPOLIS    CLEAR     52  40  63 CALM      30.22S
INTNL FALLS    CLOUDY    43  39  86 CALM      30.06F
DULUTH         CLEAR     43  35  73 W6        30.15S
RED WING       CLEAR     43  41  93 CALM      30.22S
REDWOOD FALLS  CLEAR     46  39  76 CALM      30.22F
MANKATO        CLEAR     46  37  71 S3        30.23S
WORTHINGTON    CLEAR     43  39  87 SW3       30.25S
FAIRMONT       CLEAR     45  37  76 CALM      30.24S
$$

...SOUTHWEST WISCONSIN...


CITY           SKY/WX    TMP DP  RH WIND       PRES   REMARKS
LA CROSSE      CLEAR     49  45  86 CALM      30.22S
PRAIRIE DU CHI   N/A     44  42  93 CALM      30.23R
BOSCOBEL       FOG       44  42  93 CALM      30.23R VSB 1/4
LONE ROCK      PTCLDY    45  41  86 CALM      30.21S FOG
PLATTEVILLE    CLEAR     45  44  96 CALM      30.22R
FORT MC COY    CLEAR     39  38  99 CALM      30.23R
CAMP DOUGLAS   CLEAR     41  41 100 W5        30.20R
VIROQUA        FAIR      44  44 100 NW5       30.21F
WIS DELLS      CLEAR     44  43  95 CALM      30.20R
$$

...ELSEWHERE IN WISCONSIN...


CITY           SKY/WX    TMP DP  RH WIND       PRES   REMARKS
MILWAUKEE      CLEAR     50  47  89 W5        30.17R
MADISON        CLEAR     47  43  86 VRB3      30.19R
GREEN BAY      CLEAR     47  45  93 NW8       30.16R
EAU CLAIRE     CLEAR     42  38  85 CALM      30.21R
BLACK RVR FLS  FAIR      37  37 100 CALM      30.21S
MEDFORD        CLEAR     35  35  99 CALM      30.19S
WAUSAU         CLEAR     45  38  76 NW3       30.17S
WIS RAPIDS     CLEAR     44  41  89 CALM      30.21R
MARSHFIELD     CLEAR     42  38  85 NW6       30.19R
RICE LAKE      CLEAR     41  40  95 CALM      30.22R
$$

...NORTHEAST IOWA...


CITY           SKY/WX    TMP DP  RH WIND       PRES   REMARKS
WATERLOO       CLEAR     43  42  97 CALM      30.23R
DUBUQUE        CLEAR     41  40  96 CALM      30.22R
DECORAH        PTCLDY    45  45 100 CALM      30.22S
MASON CITY     CLEAR     41  40  96 CALM      30.26R
CHARLES CITY   CLEAR     46  43  87 N6        30.24S
OELWEIN        CLEAR     45  43  93 CALM      30.24R
$$

...ELSEWHERE IN IOWA...


CITY           SKY/WX    TMP DP  RH WIND       PRES   REMARKS
DES MOINES     CLEAR     52  45  77 CALM      30.25R
IOWA CITY      CLEAR     47  45  93 N3        30.23S
FORT DODGE     CLEAR     43  39  87 CALM      30.26S
MARSHALLTOWN   CLEAR     45  43  93 CALM      30.24R
CEDAR RAPIDS   CLEAR     48  46  93 CALM      30.22R
$$

...NORTHERN ILLINOIS...


CITY           SKY/WX    TMP DP  RH WIND       PRES   REMARKS
CHICAGO-OHARE  PTCLDY    53  48  83 NW7       30.17R
DUPAGE         CLEAR     51  47  86 N6        30.18R
CHICAGO-MIDWAY MOCLDY    56  49  77 NW12      30.17R
MOLINE         CLEAR     47  46  97 CALM      30.21R
ROCKFORD       CLEAR     46  44  93 CALM      30.21R
STERLING       CLEAR     46  45  93 N3        30.21R
PEORIA         CLOUDY    56  52  86 N6        30.20R
$$

NOTE: "FAIR" INDICATES FEW OR NO CLOUDS BELOW 12,000 FEET WITH NO
SIGNIFICANT WEATHER AND/OR OBSTRUCTIONS TO VISIBILITY. WIND
SPEEDS ARE IN MILES-PER-HOUR.



USA.gov is the U.S. government's official web portal to all federal, state and local government web resources and services.